Weather History for Casper, WY

Change the Weather History Date:

Wednesday, November 20, 2013

  Actual Average Record
Temperature  
Mean Temperature 32 °F 31 °F  
Max Temperature 54 °F 42 °F 61 °F (1966)
Min Temperature 10 °F 20 °F -14 °F (1977)
Degree Days  
Heating Degree Days 33 34  
Month to date heating degree days 560 591  
Since 1 July heating degree days 1449 1490  
Cooling Degree Days 0 0  
Month to date cooling degree days 0 0  
Year to date cooling degree days 618 422  
Moisture  
Dew Point 18 °F    
Average Humidity 58    
Maximum Humidity 84    
Minimum Humidity 32    
Precipitation  
Precipitation 0.09 in 0.02 in 0.52 in (1979)
Month to date precipitation 0.10 0.55  
Year to date precipitation 13.80 11.82  
Snow  
Snow 1.20 in 0.30 in - ()
Month to date snowfall 1.3 6.8  
Since 1 July snowfall 22.5 16.0  
Since 1 September snowfall 22.5 16.0  
Snow Depth 1.00 in    
Sea Level Pressure  
Sea Level Pressure 29.95 in    
Wind  
Wind Speed 19 mph (NNE)    
Max Wind Speed 30 mph    
Max Gust Speed 38 mph    
Visibility 7 miles    
Events Snow    
T = Trace of Precipitation, MM = Missing Value Source: NWS Daily Summary

Daily Weather History Graph

Daily Weather History Graph

Search for Another Location

Airport:

Trip Planner

Search our weather history database for the weather conditions in past years. The results will help you decide how hot, cold, wet, or windy it might be!

Date:

Astronomy

Nov. 20, 2013 Rise Set
Actual Time 7:04 AM MST 4:38 PM MST
Civil Twilight 6:33 AM MST 5:09 PM MST
Nautical Twilight 5:59 AM MST 5:43 PM MST
Astronomical Twilight 5:25 AM MST 6:17 PM MST
Moon 7:23 PM MST (11/20) 9:31 AM MST (11/20)
Length of Visible Light 10h 35m
Length of Day
9h 33m
Waning Gibbous, 91% of the Moon is Illuminated
Nov 20
Waning Gibbous
Nov 25
Last Quarter
Dec 2
New
Dec 9
First Quarter
Dec 17
Full

Hourly Weather History & Observations

Time (MST) Temp. Windchill Dew Point Humidity Pressure Visibility Wind Dir Wind Speed Gust Speed Precip Events Conditions
12:53 AM 37.9 °F 29.2 °F 28.9 °F 70% 29.71 in 10.0 mi SW 15.0 mph - N/A   Clear
1:53 AM 39.0 °F 29.9 °F 28.9 °F 67% 29.73 in 10.0 mi SSW 17.3 mph - N/A   Clear
2:53 AM 37.9 °F 28.5 °F 28.0 °F 68% 29.75 in 10.0 mi SW 17.3 mph - N/A   Clear
3:53 AM 37.0 °F 26.2 °F 28.0 °F 70% 29.74 in 10.0 mi SSW 21.9 mph 27.6 mph N/A   Clear
4:53 AM 36.0 °F 25.3 °F 27.0 °F 70% 29.76 in 10.0 mi SSW 19.6 mph - N/A   Clear
5:53 AM 36.0 °F 26.3 °F 27.0 °F 70% 29.78 in 10.0 mi SW 16.1 mph - N/A   Clear
6:53 AM 35.1 °F - 27.0 °F 72% 29.80 in 10.0 mi North - - N/A   Clear
7:53 AM 37.0 °F 27.7 °F 28.0 °F 70% 29.79 in 10.0 mi SSW 16.1 mph 20.7 mph N/A   Clear
8:53 AM 41.0 °F 31.9 °F 28.0 °F 60% 29.79 in 10.0 mi SW 19.6 mph - N/A   Clear
9:53 AM 44.1 °F 35.4 °F 28.0 °F 53% 29.76 in 10.0 mi SW 21.9 mph 31.1 mph N/A   Clear
10:53 AM 48.0 °F - 28.0 °F 46% 29.72 in 10.0 mi SW 25.3 mph 31.1 mph N/A   Clear
11:53 AM 51.1 °F - 26.1 °F 38% 29.70 in 10.0 mi SW 23.0 mph 31.1 mph N/A   Clear
12:53 PM 52.0 °F - 27.0 °F 38% 29.68 in 10.0 mi SW 24.2 mph 33.4 mph N/A   Clear
1:53 PM 54.0 °F - 26.1 °F 34% 29.66 in 10.0 mi WSW 24.2 mph 33.4 mph N/A   Mostly Cloudy
2:53 PM 54.0 °F - 25.0 °F 33% 29.67 in 10.0 mi WSW 24.2 mph 28.8 mph N/A   Clear
3:53 PM 27.0 °F 11.9 °F 21.9 °F 81% 29.87 in 9.0 mi North 25.3 mph 36.8 mph N/A   Mostly Cloudy
4:05 PM 25.0 °F 9.9 °F 21.0 °F 85% 29.84 in 7.0 mi North 23.0 mph 35.7 mph N/A   Mostly Cloudy
4:30 PM 21.0 °F 5.7 °F 19.0 °F 92% 29.92 in 7.0 mi North 19.6 mph 29.9 mph N/A   Overcast
4:53 PM 19.0 °F 5.0 °F 16.0 °F 88% 30.04 in 9.0 mi North 15.0 mph - N/A   Overcast
5:10 PM 18.0 °F 1.7 °F 15.1 °F 88% 29.99 in 4.0 mi NE 19.6 mph 26.5 mph 0.00 in Snow Light Snow
5:36 PM 16.0 °F -1.3 °F 10.9 °F 81% 30.01 in 7.0 mi North 20.7 mph 28.8 mph 0.00 in   Overcast
5:53 PM 16.0 °F 0.1 °F 10.0 °F 77% 30.13 in 9.0 mi NNE 17.3 mph - 0.00 in   Overcast
6:53 PM 14.0 °F -4.7 °F 7.0 °F 74% 30.20 in 10.0 mi NNE 23.0 mph 32.2 mph N/A   Overcast
7:02 PM 14.0 °F -3.0 °F 7.0 °F 74% 30.09 in 10.0 mi NNE 18.4 mph 28.8 mph N/A   Overcast
7:53 PM 12.9 °F -3.4 °F 6.1 °F 74% 30.24 in 8.0 mi NE 16.1 mph - 0.00 in Snow Light Snow
8:08 PM 12.9 °F -4.9 °F 6.1 °F 74% 30.13 in 10.0 mi NE 19.6 mph - 0.00 in   Overcast
8:53 PM 12.0 °F -5.1 °F 5.0 °F 73% 30.26 in 3.0 mi ENE 17.3 mph - 0.00 in Snow Light Snow
9:37 PM 10.9 °F -2.6 °F 6.1 °F 81% 30.17 in 1.8 mi NNE 10.4 mph - 0.01 in Snow Light Snow
9:46 PM 10.9 °F -2.6 °F 6.1 °F 81% 30.18 in 1.5 mi NE 10.4 mph - 0.02 in Snow Light Snow
9:53 PM 10.9 °F -1.8 °F 6.1 °F 81% 30.27 in 1.0 mi NE 9.2 mph - 0.02 in Snow Light Snow
10:53 PM 10.0 °F -3.7 °F 6.1 °F 84% 30.27 in 0.8 mi NE 10.4 mph - 0.05 in Snow Light Snow
11:00 PM 10.0 °F -3.7 °F 6.1 °F 84% 30.18 in 1.0 mi NE 10.4 mph - 0.00 in Snow Light Snow
11:15 PM 10.0 °F -2.9 °F 6.1 °F 84% 30.19 in 1.5 mi NE 9.2 mph - 0.01 in Snow Light Snow
11:53 PM 10.0 °F -2.9 °F 6.1 °F 84% 30.27 in 1.2 mi ENE 9.2 mph - 0.02 in Snow Light Snow